[Iaude] MPEC T26: 2023 TN [a=1.03,e=0.33,i=10.9,H=24.8]

mpec at marsden.cfa.harvard.edu mpec at marsden.cfa.harvard.edu
Thu Oct 5 05:14:43 EDT 2023


M.P.E.C. 2023-T26                               Issued 2023 October 5, 09:13 UT

     The Minor Planet Electronic Circulars contain information on unusual
         minor planets, routine data on comets and natural satellites,
         and occasional editorial announcements.  They are published
    on behalf of Division F of the International Astronomical Union by the
          Minor Planet Center, Smithsonian Astrophysical Observatory,
                          Cambridge, MA 02138, U.S.A.
			  
             Prepared using the Tamkin Foundation Computer Network

                              MPC at CFA.HARVARD.EDU
            URL https://www.minorplanetcenter.net/    ISSN 1523-6714

                                    2023 TN                                     


Observations:
     K23T00N 1C2023 09 27.32153 02 42 03.79 +39 46 03.9          20.4 GVET026703
     K23T00N 1C2023 09 27.33185 02 41 46.41 +39 41 21.2          19.4 GVET026703
     K23T00N 1C2023 10 03.40969 01 20 51.15 +05 37 55.4          19.1 GVET026703
     K23T00N* C2023 10 04.49700601 14 26.721+02 16 49.61         19.43iXET026F52
     K23T00N  C2023 10 04.50868401 14 22.386+02 14 51.48         19.16iXET026F52
     K23T00N  C2023 10 04.52038501 14 18.046+02 12 52.53         19.23iXET026F52
     K23T00N  C2023 10 04.53204201 14 13.766+02 10 54.71         19.38iXET026F52
     K23T00N  C2023 10 04.59884501 13 49.807+01 59 42.29         19.19GVET026F52
     K23T00N  C2023 10 04.59948101 13 49.598+01 59 36.04         19.26GVET026F52
     K23T00N KB2023 10 04.94851501 12 09.194+01 02 14.64         19.1 GXET026K74
     K23T00N KB2023 10 04.96082801 12 05.074+01 00 18.29         19.4 GXET026K74
     K23T00N KB2023 10 04.98743001 11 57.26 +00 56 15.9          19.6 GVET026I93
     K23T00N KB2023 10 04.99343801 11 55.22 +00 55 19.8          19.9 GVET026I93
     K23T00N KB2023 10 04.99932301 11 53.25 +00 54 24.6          19.8 GVET026I93
     K23T00N KC2023 10 05.06102201 11 31.24 +00 44 48.5          19.6 GVET026L01
     K23T00N KC2023 10 05.06250901 11 30.78 +00 44 34.4          19.6 GVET026L01
     K23T00N KC2023 10 05.06399401 11 30.26 +00 44 20.6          19.6 GVET026L01
     K23T00N KC2023 10 05.06548101 11 29.75 +00 44 07.3          19.6 GVET026L01
     K23T00N KC2023 10 05.06702001 11 29.31 +00 43 53.0          19.9 GVET026L01
     K23T00N KC2023 10 05.06855401 11 28.82 +00 43 38.9          19.9 GVET026L01
     K23T00N 7C2023 10 05.12377601 11 11.766+00 35 22.72         19.4 GVET026Z84
     K23T00N 7C2023 10 05.12571701 11 11.123+00 35 05.01         19.6 GVET026Z84
     K23T00N 7C2023 10 05.12765601 11 10.488+00 34 47.36         19.4 GVET026Z84

Observer details:
703 Catalina Sky Survey.  Observers A. Serrano, D. Rankin.  Measurers B. Gray,
    D. Rankin, F. C. Shelly.  0.68-m Schmidt + 10K CCD.
F52 Pan-STARRS 2, Haleakala.  Observers J. Bulger, T. Lowe, P. Minguez, A.
    Schultz, I. Smith, K. Chambers, T. Dukes.  Measurers K. Chambers, T. de
    Boer, J. Bulger, J. Fairlamb, H. Gao, M. Huber, C.-C. Lin, T. Lowe, E.
    Magnier, P. Minguez, Y. Ramanjooloo, A. Schultz, I. Smith, R. Wainscoat,
    R. Weryk, S. Chastel.  1.8-m Ritchey-Chretien + CCD.
I93 St Pardon de Conques.  Observer F. Losse.  0.40-m f/3.7 reflector + CMO.
K74 Muensterschwarzach Observatory, Schwarzach.  Observer C. Gerhard.  0.30-m
    f/3.75 reflector + CMO.
L01 Visnjan Observatory, Tican.  Observer K. Korlevic.  1.0-m f/2.9 reflector
    + CCD.
Z84 Calar Alto-Schmidt.  Observers F. Ocana, M. Micheli, R. Kresken, L.
    Conversi.  Measurers F. Ocana, M. Micheli.  0.8-m f/3 Schmidt + CCD.

Orbital elements:
2023 TN                                                  Earth MOID = 0.0244 AU
Epoch 2023 Sept. 13.0 TT = JDT 2460200.5                Veres                   
M  57.79446              (2000.0)            P               Q                  
n   0.94953551     Peri.   65.92260     -0.25512667     +0.96641260             
a   1.0251685      Node   189.45527     -0.94137415     -0.25556657             
e   0.3306379      Incl.   10.85470     -0.22073763     -0.02706318             
P   1.04           H   24.83          G   0.15           U   8                  
Residuals in seconds of arc
230927 703  0.6+  0.1-    231004 F52  0.0   0.0     231005 L01  0.5-  0.3-
230927 703  0.6-  0.2+    231004 K74  0.2-  0.3+    231005 L01  0.9-  0.2+
231003 703  0.3+  0.4-    231004 K74  0.1-  0.0     231005 L01  0.1+  0.2+
231004 F52  0.3-  0.6-    231004 I93  0.1+  0.3-    231005 L01  0.3+  0.3+
231004 F52  0.0   0.1-    231004 I93  0.1-  0.0     231005 Z84  0.1+  0.1-
231004 F52  0.1-  0.3-    231004 I93  0.1+  0.1-    231005 Z84  0.0   0.1+
231004 F52  0.1+  0.1-    231005 L01  0.4-  0.1+    231005 Z84  0.1-  0.2+
231004 F52  0.1-  0.1-    231005 L01  0.0   0.3-

Ephemeris:
2023 TN                  a,e,i = 1.03, 0.33, 11                  q = 0.6862
Date    TT    R. A. (2000) Decl.     Delta      r    Elong.  Phase     V
2023 09 05    11 33 12.9 +40 05 14   0.1392  0.8967    34.2   140.8    27.3
...
2023 09 20    09 08 35.9 +61 55 30   0.05313 0.9854    67.4   109.7    22.6
...
2023 09 28    02 25 43.5 +34 36 38   0.03986 1.0310   135.3    43.1    19.6
...
2023 10 04    01 17 17.1 +03 45 19   0.06421 1.0639   170.1     9.3    19.6
2023 10 05    01 11 52.7 +00 55 52   0.06965 1.0692   171.6     7.9    19.7
2023 10 06    01 07 15.1 -01 28 31   0.07530 1.0745   171.6     7.8    19.9
...
2023 10 12    00 49 29.9 -10 22 29   0.1122  1.1056   162.0    16.2    21.2
...
2023 10 20    00 38 59.2 -15 12 48   0.1667  1.1446   151.0    24.9    22.4
...
2023 11 04    00 35 31.1 -17 11 28   0.2795  1.2098   136.4    34.4    23.9

M. P. C. Staff               (C) Copyright 2023 MPC           M.P.E.C. 2023-T26





More information about the Iaude mailing list